SCP
-0 -0 -0 -0 -0 -0 -0 0 -0 -0 -0 -0 -0 0 -0 -0 0 0 0 0 0 0 0 0 0 0 -0 -0 0 -0 -0 -0
-0 -0 0 0 0 0 0 0 0 0 0 0 0 0 0 0 0 0 0 0 0 0 0 0 0 0 -0 0 0 -0 -0 -0
-0 0 0 0 0 0 0 0 0 0 0 0 0 0 0 0 0 0 0 0 0 0 0 0 0 0 0 0 -0 -0 -0 -0
0 0 0 0 0 0 0 0 0 0 0 0 0 0 0 0 0 0 0 0 0 0 0 0 0 0 0 0 -0 -0 -0 -0
0 0 0 0 0 0 0 0 0 0 0 1 1 1 1 0 0 0 0 0 0 0 0 0 0 0 0 0 -0 -0 -0 -0
1 1 0 0 0 0 0 0 1 0 1 1 1 1 1 0 0 0 0 0 0 0 0 0 0 0 0 0 -0 -0 -0 -0
0 1 1 0 0 -0 0 0 0 0 0 0 0 0 0 0 0 0 0 0 0 0 0 0 0 0 0 0 0 -0 -0 0
0 1 1 1 0 0 1 1 0 0 0 0 0 0 0 0 0 0 0 0 0 0 0 0 0 0 0 0 0 0 -0 0
0 1 1 1 2 0 3 1 -0 0 0 0 0 1 0 0 0 0 0 0 0 0 0 0 0 0 -0 0 0 0 0 0
0 0 1 2 2 2 2 4 2 3 3 0 1 1 0 0 1 1 1 0 0 0 0 0 0 0 0 0 1 1 1 0
0 0 0 1 3 3 5 5 5 1 1 3 3 1 0 1 1 2 1 1 0 0 0 0 0 0 0 0 1 1 1 0
0 0 0 1 3 3 3 3 2 2 2 1 1 0 0 -0 2 2 2 1 1 1 1 1 1 1 0 0 -0 1 1 1
0 0 0 0 2 2 2 1 1 1 3 3 0 0 0 -0 2 2 1 2 2 1 1 1 1 1 0 0 0 0 2 2
0 1 0 0 2 1 2 1 2 1 2 2 3 0 0 0 1 1 1 1 3 2 3 1 1 1 1 1 0 0 2 1
0 1 1 1 2 1 1 2 1 1 1 2 1 0 0 0 -0 1 1 2 3 2 2 2 1 1 1 1 0 0 1 0
1 2 2 2 2 2 2 1 0 0 0 0 1 0 0 -0 1 1 0 1 1 1 1 0 1 1 1 1 1 0 1 0
2 3 2 2 2 3 2 0 0 0 0 0 1 0 0 0 1 1 1 1 1 1 2 1 1 1 1 1 1 1 0 1
1 2 2 1 3 3 1 1 1 1 1 0 1 1 1 1 1 1 1 1 1 1 1 2 2 1 1 1 1 1 0 0
0 1 1 1 3 2 2 1 1 1 1 0 0 1 1 1 0 1 1 1 1 1 1 1 1 1 1 1 1 0 0 0
Wind_Speed_500mb
38 36 36 34 34 33 32 30 32 29 27 24 19 15 13 11 9 11 12 12 10 12 13 13 13 13 15 17 21 30 33 32
37 33 34 33 33 32 31 30 30 29 27 25 21 17 14 12 9 9 10 11 10 9 11 11 11 13 15 18 21 27 31 30
28 28 31 32 31 31 31 31 30 28 26 24 22 19 16 14 12 9 8 9 10 8 9 9 9 12 15 17 19 22 20 25
20 30 29 29 30 30 29 29 29 29 28 26 24 21 20 18 16 13 10 9 9 9 8 8 8 11 14 16 18 22 24 22
29 15 30 31 29 29 30 31 30 29 29 29 28 27 26 24 22 18 14 11 10 10 9 10 9 11 13 14 14 18 24 13
41 30 21 22 29 28 28 29 30 31 32 32 33 33 32 30 26 24 20 16 13 12 12 12 11 12 13 11 11 13 19 14
38 37 26 30 26 25 18 13 25 30 31 34 36 37 36 30 20 17 22 18 16 16 17 16 15 15 15 12 11 12 19 13
40 21 60 65 36 23 44 30 15 26 33 38 41 42 40 30 33 26 25 28 25 23 22 20 20 19 14 10 8 7 9 9
7 16 24 37 33 24 20 26 12 23 34 29 33 39 33 44 38 31 26 20 12 24 22 16 13 13 20 22 26 11 10 20
10 13 13 17 15 30 45 20 20 37 40 35 23 32 41 43 39 42 29 27 22 7 6 26 13 24 8 26 32 26 19 22
21 16 8 11 23 22 22 36 16 29 23 34 34 50 41 33 34 34 36 31 22 20 18 16 25 24 26 26 32 37 35 25
27 33 26 15 24 22 25 29 36 21 19 39 35 57 53 34 35 41 29 29 35 22 30 20 23 26 29 27 34 36 33 26
34 27 35 29 24 28 25 25 27 29 25 30 37 23 26 33 42 42 44 40 33 28 28 37 30 29 29 26 27 28 37 38
31 32 41 39 23 27 18 17 23 27 29 31 26 24 26 17 25 33 36 31 40 39 32 26 34 32 30 34 27 30 36 36
39 42 35 44 35 26 22 26 19 19 18 26 32 42 44 35 27 26 27 35 38 41 38 29 36 38 38 39 35 39 40 52
40 51 56 47 46 38 31 26 15 19 20 25 31 20 28 16 18 21 19 25 24 35 43 44 45 38 41 38 37 38 29 31
44 52 52 55 52 51 42 32 24 26 28 14 21 9 15 6 13 11 16 21 22 18 26 30 48 42 39 38 37 33 43 37
47 54 53 53 57 58 49 41 38 21 20 18 10 15 18 14 15 15 16 15 21 22 20 26 24 35 44 46 47 49 26 21
52 58 55 56 61 64 54 49 47 42 29 26 27 31 32 20 19 25 24 26 29 26 24 24 27 33 32 37 47 57 58 53
Wind_Direction_500mb
136 137 138 138 143 148 157 167 172 173 174 173 168 167 164 159 148 138 130 123 112 97 96 87 80 85 93 102 104 101 98 80
143 137 142 141 145 151 156 164 171 176 181 183 181 181 189 184 183 164 147 139 128 108 103 95 86 96 101 106 110 111 102 92
161 148 148 149 151 154 160 167 173 179 187 193 194 195 201 207 203 201 177 160 148 135 123 111 103 112 116 113 110 122 118 105
149 150 155 159 161 162 166 172 179 187 193 200 206 208 210 214 222 214 212 186 169 161 152 138 131 130 131 124 117 122 129 121
149 162 163 169 172 174 177 180 186 193 201 207 211 213 213 212 220 229 225 215 195 185 179 166 160 153 148 138 130 125 135 113
175 191 182 172 173 179 188 189 192 198 204 210 215 216 214 214 216 224 231 222 207 205 200 191 182 177 167 156 140 133 136 125
183 154 177 192 174 141 210 189 205 207 211 212 216 218 214 211 215 244 228 238 228 217 213 206 201 195 192 180 167 141 131 153
198 220 194 181 187 142 199 213 248 228 218 216 216 217 211 188 209 206 237 248 247 235 221 217 212 209 199 194 230 242 145 171
252 151 184 188 204 208 179 215 173 240 241 230 226 218 208 184 190 213 230 249 274 246 229 212 248 213 198 206 247 256 234 200
307 23 164 217 229 171 208 194 232 223 224 214 232 236 209 195 184 204 210 246 247 271 231 217 240 244 217 245 230 243 239 224
267 257 256 231 194 197 231 215 250 241 251 244 258 228 206 197 206 200 197 207 223 221 239 210 224 224 230 218 250 246 245 245
247 250 235 233 226 229 244 226 241 215 263 266 252 259 293 203 214 208 198 202 216 216 218 219 218 230 233 235 225 252 252 234
224 232 224 221 227 222 241 239 228 265 262 268 280 288 227 191 219 220 202 202 203 213 237 225 231 226 249 238 238 247 244 230
217 217 205 202 209 217 241 214 218 244 248 264 258 250 242 257 239 228 212 209 211 212 213 237 224 236 238 246 242 245 244 226
220 210 210 207 204 199 231 195 228 223 246 237 276 257 241 232 182 233 197 207 223 218 217 236 246 245 238 240 242 257 263 236
220 213 214 203 202 203 209 195 206 216 238 232 251 214 154 161 196 207 200 219 235 236 238 230 241 238 230 247 257 257 256 254
219 208 210 206 204 201 196 192 206 225 221 214 226 247 150 103 176 227 208 210 259 254 249 249 245 245 248 245 264 272 262 256
215 209 213 213 206 205 202 196 210 203 211 188 186 212 258 209 204 206 235 216 240 248 269 283 276 261 267 256 256 261 246 272
220 225 223 217 205 210 196 203 208 211 210 223 238 240 224 212 204 221 243 240 246 250 259 259 275 286 290 276 264 264 255 247
Wind_Speed_850mb
38 36 36 34 34 33 32 30 32 29 27 24 19 15 13 11 9 11 12 12 10 12 13 13 13 13 15 17 21 30 33 32
37 33 34 33 33 32 31 30 30 29 27 25 21 17 14 12 9 9 10 11 10 9 11 11 11 13 15 18 21 27 31 30
28 28 31 32 31 31 31 31 30 28 26 24 22 19 16 14 12 9 8 9 10 8 9 9 9 12 15 17 19 22 20 25
20 30 29 29 30 30 29 29 29 29 28 26 24 21 20 18 16 13 10 9 9 9 8 8 8 11 14 16 18 22 24 22
29 15 30 31 29 29 30 31 30 29 29 29 28 27 26 24 22 18 14 11 10 10 9 10 9 11 13 14 14 18 24 13
41 30 21 22 29 28 28 29 30 31 32 32 33 33 32 30 26 24 20 16 13 12 12 12 11 12 13 11 11 13 19 14
38 37 26 30 26 25 18 13 25 30 31 34 36 37 36 30 20 17 22 18 16 16 17 16 15 15 15 12 11 12 19 13
40 21 60 65 36 23 44 30 15 26 33 38 41 42 40 30 33 26 25 28 25 23 22 20 20 19 14 10 8 7 9 9
7 16 24 37 33 24 20 26 12 23 34 29 33 39 33 44 38 31 26 20 12 24 22 16 13 13 20 22 26 11 10 20
10 13 13 17 15 30 45 20 20 37 40 35 23 32 41 43 39 42 29 27 22 7 6 26 13 24 8 26 32 26 19 22
21 16 8 11 23 22 22 36 16 29 23 34 34 50 41 33 34 34 36 31 22 20 18 16 25 24 26 26 32 37 35 25
27 33 26 15 24 22 25 29 36 21 19 39 35 57 53 34 35 41 29 29 35 22 30 20 23 26 29 27 34 36 33 26
34 27 35 29 24 28 25 25 27 29 25 30 37 23 26 33 42 42 44 40 33 28 28 37 30 29 29 26 27 28 37 38
31 32 41 39 23 27 18 17 23 27 29 31 26 24 26 17 25 33 36 31 40 39 32 26 34 32 30 34 27 30 36 36
39 42 35 44 35 26 22 26 19 19 18 26 32 42 44 35 27 26 27 35 38 41 38 29 36 38 38 39 35 39 40 52
40 51 56 47 46 38 31 26 15 19 20 25 31 20 28 16 18 21 19 25 24 35 43 44 45 38 41 38 37 38 29 31
44 52 52 55 52 51 42 32 24 26 28 14 21 9 15 6 13 11 16 21 22 18 26 30 48 42 39 38 37 33 43 37
47 54 53 53 57 58 49 41 38 21 20 18 10 15 18 14 15 15 16 15 21 22 20 26 24 35 44 46 47 49 26 21
52 58 55 56 61 64 54 49 47 42 29 26 27 31 32 20 19 25 24 26 29 26 24 24 27 33 32 37 47 57 58 53
Wind_Direction_850mb
136 137 138 138 143 148 157 167 172 173 174 173 168 167 164 159 148 138 130 123 112 97 96 87 80 85 93 102 104 101 98 80
143 137 142 141 145 151 156 164 171 176 181 183 181 181 189 184 183 164 147 139 128 108 103 95 86 96 101 106 110 111 102 92
161 148 148 149 151 154 160 167 173 179 187 193 194 195 201 207 203 201 177 160 148 135 123 111 103 112 116 113 110 122 118 105
149 150 155 159 161 162 166 172 179 187 193 200 206 208 210 214 222 214 212 186 169 161 152 138 131 130 131 124 117 122 129 121
149 162 163 169 172 174 177 180 186 193 201 207 211 213 213 212 220 229 225 215 195 185 179 166 160 153 148 138 130 125 135 113
175 191 182 172 173 179 188 189 192 198 204 210 215 216 214 214 216 224 231 222 207 205 200 191 182 177 167 156 140 133 136 125
183 154 177 192 174 141 210 189 205 207 211 212 216 218 214 211 215 244 228 238 228 217 213 206 201 195 192 180 167 141 131 153
198 220 194 181 187 142 199 213 248 228 218 216 216 217 211 188 209 206 237 248 247 235 221 217 212 209 199 194 230 242 145 171
252 151 184 188 204 208 179 215 173 240 241 230 226 218 208 184 190 213 230 249 274 246 229 212 248 213 198 206 247 256 234 200
307 23 164 217 229 171 208 194 232 223 224 214 232 236 209 195 184 204 210 246 247 271 231 217 240 244 217 245 230 243 239 224
267 257 256 231 194 197 231 215 250 241 251 244 258 228 206 197 206 200 197 207 223 221 239 210 224 224 230 218 250 246 245 245
247 250 235 233 226 229 244 226 241 215 263 266 252 259 293 203 214 208 198 202 216 216 218 219 218 230 233 235 225 252 252 234
224 232 224 221 227 222 241 239 228 265 262 268 280 288 227 191 219 220 202 202 203 213 237 225 231 226 249 238 238 247 244 230
217 217 205 202 209 217 241 214 218 244 248 264 258 250 242 257 239 228 212 209 211 212 213 237 224 236 238 246 242 245 244 226
220 210 210 207 204 199 231 195 228 223 246 237 276 257 241 232 182 233 197 207 223 218 217 236 246 245 238 240 242 257 263 236
220 213 214 203 202 203 209 195 206 216 238 232 251 214 154 161 196 207 200 219 235 236 238 230 241 238 230 247 257 257 256 254
219 208 210 206 204 201 196 192 206 225 221 214 226 247 150 103 176 227 208 210 259 254 249 249 245 245 248 245 264 272 262 256
215 209 213 213 206 205 202 196 210 203 211 188 186 212 258 209 204 206 235 216 240 248 269 283 276 261 267 256 256 261 246 272
220 225 223 217 205 210 196 203 208 211 210 223 238 240 224 212 204 221 243 240 246 250 259 259 275 286 290 276 264 264 255 247